Location: Guadanolo
(41.9167°N, 12.9333°E)
Time: 06:40:29
(UTC+00:00)

BREEZE-M DEB (TANK) - Pass Details

Date: 16 September 2019
Orbit: 307 x 15401 km, 49.3° (Epoch: 17 October)

Event Time Altitude Azimuth Distance (km) Brightness Sun altitude
Rises 18:18:03 0° 295° (WNW) 2,249 7.9 -12.1°
Reaches altitude 10° 18:20:06 10° 284° (WNW) 1,209 6.1 -12.4°
Maximum altitude 18:22:07 33° 214° (SW) 562 3.1 -12.8°
Enters shadow 18:23:46 16° 154° (SSE) 1,088 4.0 -13.1°
